Wetterdaten: Woche 12.02.07 - 18.02.07 (KW7)
Datum Zeit Temperatur Luftfeuchte Luftdruck Niederschlag
12.02.2007 00:00 5,0 C 91 % 1009 hPa 0,0 l/m
12.02.2007 01:00 4,3 C 94 % 1008 hPa 0,0 l/m
12.02.2007 02:00 3,6 C 98 % 1008 hPa 0,0 l/m
12.02.2007 03:00 4,0 C 98 % 1007 hPa 0,0 l/m
12.02.2007 04:00 3,7 C 98 % 1006 hPa 0,0 l/m
12.02.2007 05:00 3,6 C 98 % 1006 hPa 1,0 l/m
12.02.2007 06:00 3,7 C 98 % 1005 hPa 0,0 l/m
12.02.2007 07:00 3,8 C 98 % 1004 hPa 2,0 l/m
12.02.2007 08:00 3,9 C 98 % 1003 hPa 2,0 l/m
12.02.2007 09:00 4,0 C 98 % 1003 hPa 0,0 l/m
12.02.2007 10:00 4,5 C 98 % 1002 hPa 0,0 l/m
12.02.2007 11:00 5,4 C 98 % 1001 hPa 0,0 l/m
12.02.2007 12:00 5,7 C 98 % 1001 hPa 1,0 l/m
12.02.2007 13:00 5,9 C 98 % 1001 hPa 0,0 l/m
12.02.2007 14:00 7,0 C 96 % 1001 hPa 1,0 l/m
12.02.2007 15:00 7,2 C 95 % 1002 hPa 0,0 l/m
12.02.2007 16:00 6,8 C 90 % 1002 hPa 0,0 l/m
12.02.2007 17:00 6,6 C 82 % 1002 hPa 0,0 l/m
12.02.2007 18:00 6,2 C 80 % 1002 hPa 0,0 l/m
12.02.2007 19:00 5,6 C 78 % 1003 hPa 0,0 l/m
12.02.2007 20:00 5,2 C 77 % 1003 hPa 0,0 l/m
12.02.2007 21:00 4,9 C 79 % 1003 hPa 0,0 l/m
12.02.2007 22:00 4,8 C 77 % 1003 hPa 0,0 l/m
12.02.2007 23:00 4,7 C 78 % 1003 hPa 0,0 l/m
13.02.2007 00:00 4,7 C 78 % 1004 hPa 0,0 l/m
13.02.2007 01:00 4,6 C 78 % 1005 hPa 0,0 l/m
13.02.2007 02:00 4,6 C 78 % 1005 hPa 0,0 l/m
13.02.2007 03:00 4,6 C 78 % 1006 hPa 0,0 l/m
13.02.2007 04:00 4,5 C 78 % 1006 hPa 0,0 l/m
13.02.2007 05:00 4,5 C 79 % 1007 hPa 0,0 l/m
13.02.2007 06:00 4,4 C 79 % 1008 hPa 0,0 l/m
13.02.2007 07:00 4,4 C 80 % 1009 hPa 0,0 l/m
13.02.2007 08:00 4,4 C 82 % 1010 hPa 0,0 l/m
13.02.2007 09:00 4,7 C 85 % 1010 hPa 0,0 l/m
13.02.2007 10:00 5,2 C 83 % 1011 hPa 0,0 l/m
13.02.2007 11:00 5,9 C 78 % 1012 hPa 0,0 l/m
13.02.2007 12:00 6,2 C 79 % 1012 hPa 0,0 l/m
13.02.2007 13:00 6,3 C 74 % 1013 hPa 0,0 l/m
13.02.2007 14:00 6,6 C 71 % 1013 hPa 0,0 l/m
13.02.2007 15:00 6,4 C 69 % 1013 hPa 0,0 l/m
13.02.2007 16:00 5,9 C 71 % 1014 hPa 0,0 l/m
13.02.2007 17:00 5,2 C 75 % 1015 hPa 0,0 l/m
13.02.2007 18:00 4,8 C 74 % 1016 hPa 0,0 l/m
13.02.2007 19:00 4,6 C 75 % 1016 hPa 0,0 l/m
13.02.2007 20:00 4,4 C 77 % 1017 hPa 0,0 l/m
13.02.2007 21:00 3,9 C 77 % 1017 hPa 1,0 l/m
13.02.2007 22:00 3,3 C 79 % 1017 hPa 0,0 l/m
13.02.2007 23:00 2,1 C 87 % 1017 hPa 0,0 l/m
14.02.2007 00:00 1,2 C 88 % 1016 hPa 0,0 l/m
14.02.2007 01:00 0,0 C 90 % 1016 hPa 0,0 l/m
14.02.2007 02:00 -0,9 C 93 % 1016 hPa 0,0 l/m
14.02.2007 03:00 -1,5 C 96 % 1015 hPa 0,0 l/m
14.02.2007 04:00 -1,9 C 97 % 1014 hPa 0,0 l/m
14.02.2007 05:00 -2,2 C 98 % 1013 hPa 0,0 l/m
14.02.2007 06:00 -2,2 C 98 % 1012 hPa 0,0 l/m
14.02.2007 07:00 -2,0 C 98 % 1011 hPa 0,0 l/m
14.02.2007 08:00 -0,9 C 98 % 1011 hPa 0,0 l/m
14.02.2007 09:00 0,2 C 98 % 1011 hPa 0,0 l/m
14.02.2007 10:00 1,3 C 97 % 1010 hPa 0,0 l/m
14.02.2007 11:00 3,2 C 80 % 1010 hPa 0,0 l/m
14.02.2007 12:00 4,1 C 74 % 1009 hPa 0,0 l/m
14.02.2007 13:00 4,3 C 77 % 1009 hPa 0,0 l/m
14.02.2007 14:00 4,2 C 89 % 1008 hPa 1,0 l/m
14.02.2007 15:00 4,1 C 94 % 1008 hPa 1,0 l/m
14.02.2007 16:00 3,9 C 95 % 1008 hPa 1,0 l/m
14.02.2007 17:00 3,6 C 97 % 1008 hPa 1,0 l/m
14.02.2007 18:00 3,3 C 98 % 1007 hPa 0,0 l/m
14.02.2007 19:00 3,3 C 98 % 1008 hPa 0,0 l/m
14.02.2007 20:00 4,9 C 98 % 1008 hPa 0,0 l/m
14.02.2007 21:00 4,2 C 97 % 1008 hPa 1,0 l/m
14.02.2007 22:00 3,8 C 98 % 1008 hPa 0,0 l/m
14.02.2007 23:00 4,2 C 98 % 1009 hPa 0,0 l/m
15.02.2007 00:00 4,7 C 98 % 1010 hPa 0,0 l/m
15.02.2007 01:00 4,8 C 98 % 1011 hPa 0,0 l/m
15.02.2007 02:00 5,4 C 98 % 1012 hPa 0,0 l/m
15.02.2007 03:00 6,1 C 98 % 1013 hPa 0,0 l/m
15.02.2007 04:00 6,1 C 97 % 1015 hPa 0,0 l/m
15.02.2007 05:00 5,4 C 91 % 1017 hPa 1,0 l/m
15.02.2007 06:00 5,0 C 86 % 1019 hPa 0,0 l/m
15.02.2007 07:00 4,9 C 86 % 1021 hPa 0,0 l/m
15.02.2007 08:00 4,8 C 83 % 1022 hPa 0,0 l/m
15.02.2007 09:00 5,1 C 84 % 1023 hPa 0,0 l/m
15.02.2007 10:00 5,6 C 77 % 1024 hPa 0,0 l/m
15.02.2007 11:00 6,5 C 59 % 1024 hPa 0,0 l/m
15.02.2007 12:00 6,8 C 62 % 1024 hPa 0,0 l/m
15.02.2007 13:00 7,1 C 54 % 1024 hPa 0,0 l/m
15.02.2007 14:00 8,3 C 47 % 1024 hPa 0,0 l/m
15.02.2007 15:00 8,8 C 47 % 1024 hPa 0,0 l/m
15.02.2007 16:00 8,2 C 49 % 1024 hPa 0,0 l/m
15.02.2007 17:00 6,7 C 54 % 1025 hPa 0,0 l/m
15.02.2007 18:00 4,1 C 67 % 1025 hPa 0,0 l/m
15.02.2007 19:00 2,5 C 76 % 1025 hPa 0,0 l/m
15.02.2007 20:00 1,2 C 83 % 1025 hPa 0,0 l/m
15.02.2007 21:00 0,3 C 87 % 1025 hPa 0,0 l/m
15.02.2007 22:00 -0,2 C 91 % 1026 hPa 0,0 l/m
15.02.2007 23:00 -0,6 C 93 % 1025 hPa 0,0 l/m
16.02.2007 00:00 -1,2 C 95 % 1025 hPa 0,0 l/m
16.02.2007 01:00 -1,5 C 96 % 1026 hPa 0,0 l/m
16.02.2007 02:00 -1,5 C 98 % 1026 hPa 0,0 l/m
16.02.2007 03:00 -1,7 C 98 % 1025 hPa 0,0 l/m
16.02.2007 04:00 -2,0 C 98 % 1025 hPa 0,0 l/m
16.02.2007 05:00 -2,0 C 98 % 1025 hPa 0,0 l/m
16.02.2007 06:00 -1,9 C 98 % 1025 hPa 0,0 l/m
16.02.2007 07:00 -2,5 C 98 % 1025 hPa 0,0 l/m
16.02.2007 08:00 -2,2 C 98 % 1025 hPa 0,0 l/m
16.02.2007 09:00 -0,5 C 98 % 1024 hPa 0,0 l/m
16.02.2007 10:00 1,2 C 91 % 1024 hPa 0,0 l/m
16.02.2007 11:00 3,2 C 78 % 1024 hPa 0,0 l/m
16.02.2007 12:00 6,5 C 59 % 1023 hPa 0,0 l/m
16.02.2007 13:00 9,4 C 46 % 1023 hPa 0,0 l/m
16.02.2007 14:00 10,1 C 41 % 1022 hPa 0,0 l/m
16.02.2007 15:00 10,0 C 43 % 1022 hPa 0,0 l/m
16.02.2007 16:00 9,1 C 47 % 1022 hPa 0,0 l/m
16.02.2007 17:00 7,7 C 53 % 1022 hPa 0,0 l/m
16.02.2007 18:00 5,9 C 59 % 1021 hPa 0,0 l/m
16.02.2007 19:00 4,6 C 66 % 1022 hPa 0,0 l/m
16.02.2007 20:00 3,7 C 71 % 1021 hPa 0,0 l/m
16.02.2007 21:00 2,9 C 75 % 1021 hPa 0,0 l/m
16.02.2007 22:00 2,1 C 80 % 1021 hPa 0,0 l/m
16.02.2007 23:00 1,7 C 84 % 1021 hPa 0,0 l/m
17.02.2007 00:00 1,3 C 85 % 1020 hPa 0,0 l/m
17.02.2007 01:00 0,8 C 88 % 1020 hPa 0,0 l/m
17.02.2007 02:00 0,0 C 91 % 1019 hPa 0,0 l/m
17.02.2007 03:00 0,0 C 96 % 1019 hPa 0,0 l/m
17.02.2007 04:00 0,1 C 93 % 1018 hPa 0,0 l/m
17.02.2007 05:00 0,1 C 92 % 1018 hPa 0,0 l/m
17.02.2007 06:00 -0,2 C 91 % 1018 hPa 0,0 l/m
17.02.2007 07:00 -0,4 C 92 % 1018 hPa 0,0 l/m
17.02.2007 08:00 -0,4 C 92 % 1018 hPa 0,0 l/m
17.02.2007 09:00 -0,3 C 90 % 1018 hPa 0,0 l/m
17.02.2007 10:00 0,6 C 85 % 1018 hPa 0,0 l/m
17.02.2007 11:00 1,8 C 76 % 1019 hPa 0,0 l/m
17.02.2007 12:00 3,5 C 69 % 1019 hPa 0,0 l/m
17.02.2007 13:00 5,8 C 57 % 1018 hPa 0,0 l/m
17.02.2007 14:00 6,5 C 51 % 1018 hPa 0,0 l/m
17.02.2007 15:00 7,0 C 52 % 1018 hPa 0,0 l/m
17.02.2007 16:00 6,5 C 54 % 1018 hPa 0,0 l/m
17.02.2007 17:00 5,7 C 64 % 1018 hPa 0,0 l/m
17.02.2007 18:00 4,8 C 68 % 1018 hPa 0,0 l/m
17.02.2007 19:00 1,7 C 75 % 1018 hPa 0,0 l/m
17.02.2007 20:00 0,7 C 83 % 1017 hPa 0,0 l/m
17.02.2007 21:00 0,6 C 87 % 1017 hPa 0,0 l/m
17.02.2007 22:00 -0,0 C 88 % 1017 hPa 0,0 l/m
17.02.2007 23:00 -0,8 C 89 % 1016 hPa 0,0 l/m
18.02.2007 00:00 -1,5 C 91 % 1016 hPa 0,0 l/m
18.02.2007 01:00 -1,6 C 94 % 1016 hPa 0,0 l/m
18.02.2007 02:00 -2,1 C 96 % 1016 hPa 0,0 l/m
18.02.2007 03:00 -2,4 C 96 % 1016 hPa 0,0 l/m
18.02.2007 04:00 -2,6 C 97 % 1016 hPa 0,0 l/m
18.02.2007 05:00 -3,3 C 98 % 1016 hPa 0,0 l/m
18.02.2007 06:00 -4,1 C 98 % 1015 hPa 0,0 l/m
18.02.2007 07:00 -3,6 C 98 % 1015 hPa 0,0 l/m
18.02.2007 08:00 -3,7 C 98 % 1015 hPa 0,0 l/m
18.02.2007 09:00 -3,3 C 98 % 1015 hPa 0,0 l/m
18.02.2007 10:00 -1,8 C 98 % 1015 hPa 0,0 l/m
18.02.2007 11:00 0,5 C 98 % 1015 hPa 0,0 l/m
18.02.2007 12:00 4,2 C 98 % 1015 hPa 0,0 l/m
18.02.2007 13:00 9,3 C 74 % 1014 hPa 0,0 l/m
18.02.2007 14:00 11,1 C 51 % 1014 hPa 0,0 l/m
18.02.2007 15:00 10,9 C 52 % 1014 hPa 0,0 l/m
18.02.2007 16:00 9,5 C 58 % 1013 hPa 0,0 l/m
18.02.2007 17:00 7,6 C 64 % 1014 hPa 0,0 l/m
18.02.2007 18:00 5,3 C 70 % 1014 hPa 0,0 l/m
18.02.2007 19:00 3,3 C 76 % 1015 hPa 0,0 l/m
18.02.2007 20:00 1,9 C 82 % 1015 hPa 0,0 l/m
18.02.2007 21:00 1,5 C 88 % 1015 hPa 0,0 l/m
18.02.2007 22:00 0,9 C 90 % 1015 hPa 0,0 l/m
18.02.2007 23:00 0,1 C 91 % 1015 hPa 0,0 l/m
Min-Datum _ 18.02.07 16.02.07 12.02.07 -
_ Min-Zeit 06:12 13:54 12:05 -
Minimum _ -4,3 C 40 % 1000 hPa -
Max-Datum _ 18.02.07 12.02.07 15.02.07 12.02.07
_ Max-Zeit 14:55 02:06 22:21 07:09
Maximum _ 12,0 C 98 % 1026 hPa 2,0 l/m
Durchschnitt _ 3,2 C 83 % 1015 hPa #14,0 l/m

Durchschnitt Minimum Temp.2,8 C
Durchschnitt Maximum Temp.3,6 C